LRAR Weather Reports


time (UTC)temp
C
wind
direction
speed
KPH
gust
KPH
rain 1hr
cm
rain 24hr
cm
rain mn
cm
humidity
%
barometer
mb
20260507051839 15 250 4.8 0.0 0.00 0.00 0.00 77 1013.0
20260507050338 15 250 4.8 0.0 0.00 0.00 0.00 77 1013.0
20260507044835 15 320 8.0 0.0 0.00 0.00 0.00 77 1013.0
20260507043338 15 320 8.0 0.0 0.00 0.00 0.00 77 1013.0
20260507041838 13 240 4.8 0.0 0.00 0.00 0.00 82 1012.0
20260507040338 13 240 4.8 0.0 0.00 0.00 0.00 82 1012.0
20260507034835 13 1.6 0.0 0.00 0.00 0.00 77 1012.0
20260507033338 13 1.6 0.0 0.00 0.00 0.00 77 1012.0
20260507031838 13 0 0.0 0.0 0.00 0.00 0.00 77 1012.0
20260507030338 13 0 0.0 0.0 0.00 0.00 0.00 77 1012.0
20260507024835 13 3.2 0.0 0.00 0.00 0.00 77 1012.0
20260507023338 13 3.2 0.0 0.00 0.00 0.00 77 1012.0
20260507021838 13 270 4.8 0.0 0.00 0.00 0.00 77 1012.0
20260507020338 13 270 4.8 0.0 0.00 0.00 0.00 77 1012.0
20260507014838 15 140 8.0 0.0 0.00 0.00 0.00 72 1011.0
20260507013338 15 140 8.0 0.0 0.00 0.00 0.00 72 1011.0
20260507011838 15 130 8.0 0.0 0.00 0.00 0.00 68 1011.0
20260507010338 15 130 8.0 0.0 0.00 0.00 0.00 68 1011.0
20260507004838 16 1.6 0.0 0.00 0.00 0.00 63 1011.0
20260507003339 16 1.6 0.0 0.00 0.00 0.00 63 1011.0
20260507001838 16 170 9.7 0.0 0.00 0.00 0.00 63 1011.0
20260507000338 16 170 9.7 0.0 0.00 0.00 0.00 63 1011.0
20260506234838 17 160 12.9 0.0 0.00 0.00 0.00 59 1011.0
20260506233338 17 160 12.9 0.0 0.00 0.00 0.00 59 1011.0
20260506231839 15 140 14.5 0.0 0.00 0.00 0.00 68 1011.0
20260506230338 15 140 14.5 0.0 0.00 0.00 0.00 68 1011.0
20260506224834 15 140 14.5 0.0 0.00 0.00 0.00 72 1011.0
20260506223338 15 140 14.5 0.0 0.00 0.00 0.00 72 1011.0
20260506221838 15 140 14.5 0.0 0.00 0.00 0.00 72 1011.0
20260506220337 15 140 14.5 0.0 0.00 0.00 0.00 72 1011.0
20260506214854 15 140 12.9 0.0 0.00 0.00 0.00 72 1011.0
20260506213338 15 140 12.9 0.0 0.00 0.00 0.00 72 1011.0
20260506211835 15 140 12.9 0.0 0.00 0.00 0.00 72 1011.0
20260506210338 15 140 12.9 0.0 0.00 0.00 0.00 72 1011.0
20260506204839 16 140 9.7 0.0 0.00 0.00 0.00 68 1011.0
20260506203338 16 140 9.7 0.0 0.00 0.00 0.00 68 1011.0
20260506201835 16 130 9.7 0.0 0.00 0.00 0.00 68 1011.0
20260506200338 16 130 9.7 0.0 0.00 0.00 0.00 68 1011.0
20260506194857 17 140 9.7 0.0 0.00 0.00 0.00 64 1011.0
20260506193402 17 140 9.7 0.0 0.00 0.00 0.00 64 1011.0
20260506191839 18 150 9.7 0.0 0.00 0.00 0.00 56 1011.0
20260506190338 18 150 9.7 0.0 0.00 0.00 0.00 56 1011.0
20260506184844 18 160 11.3 0.0 0.00 0.00 0.00 56 1011.0
20260506183338 18 160 11.3 0.0 0.00 0.00 0.00 56 1011.0
20260506181838 20 150 9.7 0.0 0.00 0.00 0.00 53 1010.0
20260506180339 20 150 9.7 0.0 0.00 0.00 0.00 53 1010.0
20260506174839 22 160 8.0 0.0 0.00 0.00 0.00 47 1010.0
20260506173338 22 160 8.0 0.0 0.00 0.00 0.00 47 1010.0
20260506171838 22 160 8.0 0.0 0.00 0.00 0.00 44 1010.0
20260506170338 22 160 8.0 0.0 0.00 0.00 0.00 44 1010.0
20260506164838 23 160 8.0 0.0 0.00 0.00 0.00 39 1010.0
20260506163338 23 160 8.0 0.0 0.00 0.00 0.00 39 1010.0
20260506161838 23 190 11.3 0.0 0.00 0.00 0.00 39 1011.0
20260506160339 23 190 11.3 0.0 0.00 0.00 0.00 39 1011.0
20260506154839 25 200 11.3 0.0 0.00 0.00 0.00 36 1011.0
20260506153338 25 200 11.3 0.0 0.00 0.00 0.00 36 1011.0
20260506151838 25 210 12.9 0.0 0.00 0.00 0.00 36 1011.0
20260506150344 25 210 12.9 0.0 0.00 0.00 0.00 36 1011.0
20260506144838 25 210 12.9 0.0 0.00 0.00 0.00 36 1011.0
20260506143350 25 210 12.9 0.0 0.00 0.00 0.00 36 1011.0
20260506141838 26 200 11.3 0.0 0.00 0.00 0.00 37 1012.0
20260506140457 26 200 11.3 0.0 0.00 0.00 0.00 37 1012.0
20260506134903 25 200 14.5 0.0 0.00 0.00 0.00 39 1012.0
20260506133338 25 200 14.5 0.0 0.00 0.00 0.00 39 1012.0
20260506131838 25 210 14.5 0.0 0.00 0.00 0.00 39 1012.0
20260506130347 25 210 14.5 0.0 0.00 0.00 0.00 39 1012.0
20260506124839 25 210 17.7 0.0 0.00 0.00 0.00 39 1012.0
20260506123338 25 210 17.7 0.0 0.00 0.00 0.00 39 1012.0
20260506121839 25 200 17.7 0.0 0.00 0.00 0.00 39 1013.0
20260506120338 25 200 17.7 0.0 0.00 0.00 0.00 39 1013.0
20260506114838 25 210 14.5 0.0 0.00 0.00 0.00 42 1013.0
20260506113339 25 210 14.5 0.0 0.00 0.00 0.00 42 1013.0
20260506111838 23 200 9.7 0.0 0.00 0.00 0.00 41 1013.0
20260506110338 23 200 9.7 0.0 0.00 0.00 0.00 41 1013.0
20260506104838 23 170 12.9 0.0 0.00 0.00 0.00 41 1013.0
20260506103338 23 170 12.9 0.0 0.00 0.00 0.00 41 1013.0
20260506101839 23 190 16.1 0.0 0.00 0.00 0.00 44 1014.0
20260506100338 23 190 16.1 0.0 0.00 0.00 0.00 44 1014.0
20260506094838 22 230 14.5 0.0 0.00 0.00 0.00 47 1014.0
20260506093338 22 230 14.5 0.0 0.00 0.00 0.00 47 1014.0
20260506091838 22 220 14.5 0.0 0.00 0.00 0.00 44 1014.0
20260506090338 22 220 14.5 0.0 0.00 0.00 0.00 44 1014.0
20260506084838 22 190 12.9 0.0 0.00 0.00 0.00 47 1014.0
20260506083338 22 190 12.9 0.0 0.00 0.00 0.00 47 1014.0
20260506081835 21 170 12.9 0.0 0.00 0.00 0.00 50 1014.0
20260506080338 21 170 12.9 0.0 0.00 0.00 0.00 50 1014.0
20260506073338 20 200 11.3 0.0 0.00 0.00 0.00 53 1014.0
20260506071838 20 200 11.3 0.0 0.00 0.00 0.00 49 1014.0
20260506070338 20 200 11.3 0.0 0.00 0.00 0.00 49 1014.0
20260506061838 16 190 11.3 0.0 0.00 0.00 0.00 63 1014.0
20260506060340 16 190 11.3 0.0 0.00 0.00 0.00 63 1014.0